Location: *
(51.8667°N, 9.6833°E)
Time: 15:54:29
(UTC+00:00)

Daily predictions for brighter satellites

Satellite Brightness Start Highest point End
(mag) Time Altitude Azimuth Time Altitude Azimuth Time Altitude Azimuth
COSMOS 2455 2.9 18:02:45 10° NW 18:08:50 87° NE 18:14:52 10° SE
Okean 1 Rocket 4.2 18:06:45 10° SE 18:10:10 23° E 18:13:37 10° NE
Cosmos 2315 Rocket 4.2 18:06:03 10° SSW 18:12:21 81° W 18:18:37 10° N
CZ-4 R/B 3.4 18:08:52 10° SSW 18:12:22 32° W 18:15:57 10° NNW
SL-16 R/B 4.2 18:07:40 10° NW 18:12:35 31° WSW 18:17:29 10° SSW
COSMOS 2487 2.8 18:11:33 10° SSW 18:15:01 72° WNW 18:18:32 10° NNE
Cosmos 1833 4.3 18:10:31 10° S 18:16:05 56° ESE 18:21:37 10° NE
Timation 2 Rocket 4.5 18:11:24 10° S 18:17:25 39° ESE 18:23:14 10° NE
Ariane Rocket 3.2 18:14:21 10° SSE 18:19:25 79° WSW 18:24:32 10° NNW
CZ-2C R/B 4.2 18:19:19 10° NNE 18:23:27 35° E 18:27:32 10° SSE
ERBS 3.7 18:21:06 10° WNW 18:24:14 33° N 18:27:22 10° ENE
Nadezhda 1 Rocket 4.2 18:19:08 10° SSE 18:24:50 45° E 18:30:34 10° NNE
Cosmos 407 Rocket 4.4 18:23:06 10° NNW 18:27:44 32° NE 18:31:59 12° ESE
SPOT 3 Rocket 3.7 18:25:04 10° SE 18:30:05 57° ENE 18:35:08 10° N
NOSS 3-4 (A) 3.9 18:23:47 10° NW 18:30:33 66° NE 18:37:42 11° ESE
NOSS 3-4 (C) 3.9 18:23:53 10° NW 18:30:39 66° NE 18:37:47 11° ESE
Cosmos 2333 Rocket 2.2 18:25:28 10° NNW 18:31:12 74° ENE 18:36:54 10° SE
Cosmos 1536 Rocket 3.7 18:27:06 10° NNW 18:31:27 81° W 18:35:47 10° S
ARGOS 3.6 18:28:13 10° SE 18:33:17 45° ENE 18:38:23 10° N
Cosmos 1025 Rocket 3.2 18:37:56 10° NNW 18:42:14 74° W 18:46:29 10° S
NOSS 3-3 (A) 4.0 18:36:30 10° SSW 18:42:22 58° SE 18:48:57 10° NE
NOSS 3-3 (C) 4.1 18:36:37 10° SSW 18:42:28 57° SE 18:49:03 10° NE
HJ-1C 4.5 18:41:03 10° S 18:44:19 47° W 18:47:37 10° NNW
Meteor 2-15 Rocket 4.5 18:38:38 10° S 18:44:40 62° E 18:50:45 10° NNE
Aureole 1 Rocket 3.6 18:40:06 10° NNW 18:46:08 79° WSW 18:50:37 10° SSE
Meteor 2-15 4.4 18:40:39 10° S 18:46:47 77° E 18:52:57 10° NNE
NOSS 0 Rocket 4.0 18:42:08 10° NNW 18:48:19 66° NE 18:53:46 14° SE
Cosmos 2341 Rocket 4.2 18:42:17 10° N 18:48:25 51° ENE 18:54:26 10° SSE
Cosmos 2237 Rocket 2.6 18:43:29 10° NNW 18:49:00 47° NE 18:53:18 16° ESE
Cosmos 1441 Rocket 3.3 18:49:20 10° S 18:53:04 53° E 18:56:47 10° NNE
SJ-6B 2.9 18:49:40 10° SSE 18:53:49 87° ENE 18:57:57 10° NNW
BREEZE-M DEB (TANK) 3.4 18:51:42 10° W 18:55:45 85° S 19:03:23 14° E
Cosmos 2151 Rocket 4.1 18:52:29 10° SSW 18:56:52 64° WNW 19:01:15 10° N
Spot 2 Rocket 4.4 18:54:17 18° ESE 18:57:11 30° ENE 19:01:34 10° N
Cosmos 1980 3.9 18:51:50 10° NNW 18:57:25 55° NE 19:01:30 18° SE
In-Cosmos 22 4.4 18:53:25 10° N 18:58:36 49° ENE 19:02:47 16° SE
USA 234 3.8 18:52:29 10° ENE 18:58:53 58° N 19:05:18 10° WNW
CZ-4C R/B 3.8 18:54:32 10° W 18:59:46 36° NNW 19:05:56 10° NE
Cosmos 1544 2.9 18:57:18 10° S 19:00:52 73° E 19:04:29 10° NNE
SAR-Lupe-2 3.7 18:58:15 10° NNE 19:01:51 76° WNW 19:05:25 10° SSW
H-2A R/B 1.9 18:57:32 10° SSE 19:02:26 74° ENE 19:07:28 10° NNW
MetOp-A 4.4 18:58:13 15° SE 19:02:31 51° ENE 19:07:42 10° N
SL-08 RB Rocket 3.9 18:59:38 15° SE 19:03:20 54° ENE 19:07:54 10° N
FREGAT/IRIS 4.2 19:00:54 10° SSW 19:03:29 32° W 19:06:05 10° NNW
Cosmos 1140 Rocket 4.1 18:58:43 10° NNW 19:03:38 40° NE 19:06:31 22° ESE
Cosmos 1707 2.6 19:04:39 10° N 19:08:36 84° E 19:12:03 13° SSE
Meteor 1-12 Rocket 4.3 19:03:20 10° SSW 19:09:06 86° WNW 19:14:49 10° NNE
Cosmos 2218 Rocket 4.3 19:06:58 10° N 19:13:11 48° ENE 19:17:21 20° SE
Cosmos 1674 3.8 19:10:51 10° NNE 19:14:00 25° ENE 19:14:23 24° E
ATLAS 2AS CENTAUR R/B 3.2 19:06:42 10° NW 19:14:25 68° SW 19:20:32 15° SSE
Cosmos 2154 Rocket 4.2 19:08:19 10° NNW 19:14:31 73° W 19:20:41 10° S
SL-16 R/B 3.1 19:11:18 10° NNW 19:16:29 35° NE 19:19:18 22° E
ADEOS Rocket 3.5 19:10:49 10° NNE 19:17:50 60° E 19:25:22 10° S
SL-8 R/B 4.2 19:13:34 10° SW 19:18:00 39° SSE 19:19:44 28° ESE
COSMOS 2428 3.4 19:16:30 10° NW 19:22:01 53° WSW 19:27:30 10° S
Cosmos 2366 rocket 4.2 19:16:16 10° N 19:22:28 52° ENE 19:26:19 23° SE
Meteor 1-15 Rocket 4.3 19:21:39 10° S 19:27:17 60° E 19:33:03 10° NNE
USA 186 3.8 19:25:14 10° SSW 19:28:13 30° W 19:31:18 10° NNW
Cosmos 1544 Rocket 4.3 19:28:08 32° E 19:28:31 33° E 19:32:33 10° NNE
Cosmos 1455 Rocket 3.5 19:28:37 34° SE 19:29:39 40° E 19:33:49 10° NNE
Cosmos 2219 Rocket 3.0 19:25:14 10° NW 19:30:34 47° WSW 19:35:48 10° S
CZ-2C R/B 3.0 19:29:08 22° SSE 19:32:38 81° ENE 19:38:07 10° NNW
Cosmos 389 Rocket 2.5 19:31:06 10° NNW 19:34:32 74° W 19:35:50 35° S
Cosmos 1190 Rocket 3.9 19:29:24 10° NNW 19:34:45 83° ENE 19:37:29 29° SSE
Resurs 01 Rocket 1.5 19:32:17 26° SSE 19:34:48 87° ENE 19:39:17 10° NNW
SL-8 Rocket 3.9 19:29:02 10° N 19:35:17 76° E 19:39:35 21° SSE
Cosmos 1461 2.6 19:31:36 10° SW 19:35:36 79° SE 19:39:34 10° NE
Terra 3.5 19:35:19 17° ENE 19:35:58 18° NE 19:39:07 10° NNE
BREEZE M DEB (TANK) 2.2 19:35:19 10° WSW 19:37:44 62° S 19:38:44 43° ESE
Resurs 1-3 3.8 19:34:40 19° S 19:37:46 70° WSW 19:42:11 10° NNW
RESURS DK-1 4.1 19:35:03 10° N 19:38:08 20° NE 19:39:02 18° NE
Meteor 1-4 Rocket 2.4 19:36:31 10° NNW 19:40:09 87° WSW 19:41:04 48° S
ASTEX 1 4.4 19:38:59 10° N 19:43:41 47° WNW 19:48:20 10° SSW
Cosmos 1626 Rocket 3.9 19:41:54 10° N 19:46:04 43° ENE 19:46:24 43° E
DMSP B5D2-2 4.2 19:41:05 10° NNE 19:46:16 52° E 19:48:20 33° SSE
Okean 1 Rocket 4.2 19:43:41 10° SSW 19:47:50 44° WNW 19:52:02 10° N
Cosmos 1437 Rocket 2.7 19:45:54 10° N 19:49:43 60° ENE 19:49:51 59° E
Cosmos 2219 3.2 19:45:23 10° SSW 19:51:01 59° ESE 19:56:41 10° NE
Cosmos 1959 Rocket 4.4 19:44:54 10° N 19:51:04 81° E 19:54:27 28° SSE
CZ-2C R/B 3.2 19:46:41 10° NNE 19:51:51 38° E 19:52:13 38° ESE
Cosmos 1023 Rocket 4.4 19:47:58 10° NNW 19:53:12 89° ENE 19:55:03 41° SSE
Cosmos 2227 Rocket 2.6 19:55:31 40° ESE 19:55:31 40° ESE 20:00:36 10° NE
SPOT 1/Viking Rocket 3.9 20:00:14 43° E 20:01:06 47° ENE 20:06:04 10° N
ERBS 2.9 19:57:46 10° WNW 20:00:58 49° N 20:00:58 49° N
Cosmos 2056 Rocket 3.5 20:00:16 27° S 20:03:14 63° ESE 20:08:36 10° NNE
Cosmos 1602 Rocket 3.7 20:00:44 10° N 20:04:58 54° ENE 20:04:58 54° ENE
Meteor 1-24 Rocket 3.7 19:59:22 10° N 20:05:05 79° ENE 20:07:05 43° SSE
Cosmos 2297 Rocket 2.3 20:06:20 49° SE 20:06:45 50° ESE 20:12:13 10° NE
Cosmos 405 Rocket 2.7 20:07:25 67° WSW 20:07:44 73° WNW 20:11:27 10° N
Cosmos 407 Rocket 4.1 20:04:59 10° NNW 20:09:57 49° WSW 20:12:11 29° SSW
Meteor 2-5 Rocket 3.9 20:05:15 10° NNW 20:11:00 73° W 20:13:50 32° S
Cosmos 2333 Rocket 4.2 20:10:33 10° NW 20:14:55 23° WSW 20:19:17 10° SSW
Cosmos 1741 Rocket 4.3 20:10:25 10° NNW 20:15:38 49° ENE 20:16:13 47° E
Cosmos 1624 Rocket 3.8 20:13:24 30° SSW 20:15:59 79° ESE 20:21:13 10° NNE
MetOp-B 4.2 20:15:24 42° S 20:17:14 76° WSW 20:22:37 10° NNW
Cosmos 1943 4.4 20:17:55 10° NNW 20:22:53 29° NE 20:24:04 27° ENE
SPOT 5 3.1 20:23:09 51° ENE 20:23:09 51° ENE 20:27:46 10° N
Cosmos 1626 3.7 20:22:22 10° N 20:24:25 27° NNE 20:24:25 27° NNE
Cosmos 1805 4.0 20:27:17 48° N 20:27:17 48° N 20:30:11 10° N
Cosmos 1954 Rocket 4.2 20:24:35 10° NNW 20:29:47 65° WSW 20:30:43 54° SSW
Cosmos 2237 Rocket 3.2 20:27:46 10° NW 20:33:02 39° WSW 20:35:07 29° SSW
Spot 2 Rocket 4.2 20:34:29 37° SW 20:35:59 48° W 20:40:53 10° NNW
IGS 5A 3.9 20:37:25 57° N 20:37:25 57° N 20:40:48 10° NNW
Meteor 1-22 Rocket 4.3 20:36:06 48° S 20:37:58 89° ESE 20:44:08 10° NNE
ERS-1 Rocket 2.8 20:40:20 87° SSE 20:40:25 89° ENE 20:45:30 10° NNW
USA 234 3.4 20:39:21 43° E 20:41:34 70° NNE 20:48:06 10° WNW
Landsat 7 3.8 20:41:53 82° WNW 20:41:53 82° WNW 20:46:34 10° NNW
H-2A R/B 4.3 20:39:08 10° SW 20:42:29 18° W 20:45:53 10° NW
Cosmos 1934 Rocket 4.1 20:37:00 10° N 20:42:58 53° ENE 20:43:07 53° E
SL-14 R/B 4.4 20:44:15 10° NNW 20:47:02 43° NNW 20:47:02 43° NNW
Cosmos 1674 4.3 20:46:15 10° NNW 20:49:13 30° W 20:49:13 30° W
CZ-4C R/B 4.1 20:44:32 10° NW 20:50:02 31° N 20:55:55 12° ENE
Cosmos 1603 4.0 20:50:01 10° NNW 20:55:34 53° NE 20:55:34 53° NE
Cosmos 1452 Rocket 4.4 21:00:00 38° NE 21:00:00 38° NE 21:03:18 10° NNE
Nadezhda 3 Rocket 3.8 20:59:21 79° SE 20:59:36 81° E 21:05:50 10° NNE
SL-16 R/B 2.5 20:55:21 10° NW 21:00:55 57° WSW 21:01:11 56° SW
Meteor 2-12 Rocket 4.3 20:58:36 10° NNW 21:04:43 81° W 21:05:08 76° SSW
Resurs 01 Rocket 4.3 21:09:52 10° WSW 21:11:57 13° W 21:14:05 10° WNW
Terra 2.4 21:14:13 54° NNW 21:14:13 54° NNW 21:17:56 10° NNW
Cosmos 1605 Rocket 4.2 21:08:22 10° N 21:14:27 60° ENE 21:14:27 60° ENE
RESURS DK-1 4.0 21:12:32 10° NW 21:14:55 33° NW 21:14:55 33° NW
Cosmos 1821 Rocket 4.1 21:11:59 10° NNW 21:18:06 64° W 21:18:37 62° WSW
Cosmos 2082 3.9 21:19:47 65° NNE 21:19:47 65° NNE 21:24:40 10° NNE
Cosmos 1535 Rocket 4.4 21:15:34 10° N 21:22:01 86° W 21:22:03 86° WSW
Mayak 1.6 21:19:50 10° NE 21:19:52 10° NE 21:19:52 10° NE
Meteor 1-21 Rocket 4.4 21:17:42 10° NNW 21:23:16 75° WNW 21:23:16 75° WNW
CZ-2C R/B 3.7 21:27:00 10° N 21:32:12 43° WNW 21:33:43 35° WSW
Cosmos 2227 Rocket 3.1 21:37:15 32° W 21:39:23 46° NW 21:44:51 10° NNE
Cosmos 2297 Rocket 3.4 21:48:00 23° W 21:50:59 38° NW 21:56:17 10° NNE
Cosmos 1943 4.0 22:01:47 10° NNW 22:05:52 47° NW 22:05:52 47° NW
Cosmos 2263 Rocket 3.9 22:14:37 24° NE 22:14:37 24° NE 22:16:54 10° NE
USA 234 3.9 22:26:41 44° W 22:26:41 44° W 22:31:13 10° WNW
CZ-4C R/B 3.4 22:33:29 10° NW 22:40:02 52° NNE 22:41:02 49° ENE
Mayak 1.5 22:55:17 10° N 22:56:26 17° N 22:56:26 17° N
ATLAS CENTAUR R/B 4.1 23:17:12 19° NE 23:17:12 19° NE 23:18:37 10° NE
Cosmos 2082 Rocket 4.1 23:13:28 10° NNW 23:18:09 25° NE 23:19:35 23° ENE
Cosmos 1844 Rocket 4.3 23:26:16 27° NE 23:26:16 27° NE 23:28:58 10° NE
COSMOS 2406 4.3 23:22:45 10° NNW 23:26:47 42° N 23:26:47 42° N
USA 267 3.6 23:25:06 10° ENE 23:30:27 60° NE 23:30:27 60° NE
